FW1654 Weather Reports


Display with metric or nautical units.
time (UTC)temp
F
wind
direction
speed
MPH
gust
MPH
rain 1hr
in
rain 24hr
in
rain mn
in
humidity
%
barometer
mb
20260510230612 78 234 5.0 9.0 0.00 0.00 0.00 46 1018.1
20260510230033 78 234 5.0 9.0 0.00 0.00 0.00 46 1018.1
20260510225739 78 191 5.0 9.0 0.00 0.00 0.00 45 1018.1
20260510225018 79 161 5.0 9.0 0.00 0.00 0.00 46 1018.1
20260510224519 79 181 4.0 9.0 0.00 0.00 0.00 44 1018.1
20260510224018 79 201 4.0 9.0 0.00 0.00 0.00 46 1018.2
20260510223518 79 255 3.0 7.0 0.00 0.00 0.00 46 1018.2
20260510223013 79 182 3.0 6.0 0.00 0.00 0.00 46 1018.2
20260510222513 78 217 2.0 6.0 0.00 0.00 0.00 46 1018.3
20260510222014 78 258 2.0 5.0 0.00 0.00 0.00 48 1018.3
20260510221513 79 267 4.0 6.0 0.00 0.00 0.00 46 1018.3
20260510221445 79 237 4.0 9.0 0.00 0.00 0.00 45 1018.2
20260510220508 80 203 4.0 9.0 0.00 0.00 0.00 44 1018.2
20260510220008 80 235 4.0 8.0 0.00 0.00 0.00 44 1018.2
20260510215508 80 235 5.0 11.0 0.00 0.00 0.00 45 1018.0
20260510215008 80 258 5.0 11.0 0.00 0.00 0.00 46 1018.0
20260510214508 80 181 5.0 11.0 0.00 0.00 0.00 44 1018.0
20260510214219 80 171 5.0 13.0 0.00 0.00 0.00 44 1018.1
20260510214101 80 179 5.0 13.0 0.00 0.00 0.00 45 1018.1
20260510213011 80 208 5.0 9.0 0.00 0.00 0.00 45 1018.1
20260510212511 80 297 4.0 10.0 0.00 0.00 0.00 46 1018.0
20260510212011 80 186 4.0 10.0 0.00 0.00 0.00 46 1018.0
20260510211511 80 183 5.0 9.0 0.00 0.00 0.00 47 1018.0
20260510211212 80 291 4.0 11.0 0.00 0.00 0.00 47 1018.1
20260510211058 80 268 5.0 11.0 0.00 0.00 0.00 48 1018.1
20260510210008 80 271 4.0 11.0 0.00 0.00 0.00 48 1018.1
20260510205507 79 192 5.0 8.0 0.00 0.00 0.00 47 1018.1
20260510205003 79 203 5.0 10.0 0.00 0.00 0.00 45 1018.1
20260510204723 79 170 5.0 10.0 0.00 0.00 0.00 45 1018.1
20260510204003 79 203 5.0 12.0 0.00 0.00 0.00 45 1018.2
20260510203503 79 196 4.0 12.0 0.00 0.00 0.00 46 1018.2
20260510203004 79 270 4.0 10.0 0.00 0.00 0.00 47 1018.2
20260510202503 79 267 5.0 11.0 0.00 0.00 0.00 47 1018.3
20260510202002 78 247 5.0 12.0 0.00 0.00 0.00 47 1018.3
20260510201503 78 199 4.0 12.0 0.00 0.00 0.00 49 1018.3
20260510201004 78 254 4.0 9.0 0.00 0.00 0.00 47 1018.6
20260510200503 79 218 4.0 10.0 0.00 0.00 0.00 46 1018.6
20260510200004 79 251 4.0 11.0 0.00 0.00 0.00 45 1018.6
20260510195503 79 187 4.0 11.0 0.00 0.00 0.00 47 1018.8
20260510195003 79 193 4.0 10.0 0.00 0.00 0.00 45 1018.8
20260510194503 79 250 4.0 10.0 0.00 0.00 0.00 46 1018.8
20260510194440 79 182 4.0 9.0 0.00 0.00 0.00 47 1018.8
20260510193500 79 192 4.0 11.0 0.00 0.00 0.00 47 1018.8
20260510193454 79 209 4.0 11.0 0.00 0.00 0.00 48 1018.8
20260510192500 79 201 3.0 9.0 0.00 0.00 0.00 48 1018.8
20260510191958 79 199 3.0 9.0 0.00 0.00 0.00 51 1018.8
20260510191458 78 208 5.0 11.0 0.00 0.00 0.00 52 1018.8
20260510190956 78 221 5.0 11.0 0.00 0.00 0.00 50 1018.9
20260510190717 79 186 3.0 11.0 0.00 0.00 0.00 49 1018.9
20260510185955 79 195 3.0 11.0 0.00 0.00 0.00 49 1018.9
20260510185725 78 203 4.0 11.0 0.00 0.00 0.00 50 1019.0
20260510184953 78 149 4.0 9.0 0.00 0.00 0.00 50 1019.0
20260510184713 78 258 4.0 10.0 0.00 0.00 0.00 50 1019.0
20260510183953 77 267 4.0 10.0 0.00 0.00 0.00 51 1019.2
20260510183451 77 199 5.0 8.0 0.00 0.00 0.00 51 1019.2
20260510183215 77 316 5.0 13.0 0.00 0.00 0.00 51 1019.2
20260510182448 77 275 4.0 13.0 0.00 0.00 0.00 54 1019.3
20260510181948 77 155 4.0 11.0 0.00 0.00 0.00 52 1019.3
20260510181711 76 222 3.0 11.0 0.00 0.00 0.00 50 1019.3
20260510180942 76 196 3.0 10.0 0.00 0.00 0.00 55 1019.4
20260510180443 76 204 4.0 9.0 0.00 0.00 0.00 52 1019.4
20260510175943 76 263 4.0 9.0 0.00 0.00 0.00 54 1019.4
20260510175444 76 246 4.0 8.0 0.00 0.00 0.00 53 1019.3
20260510174943 76 196 4.0 9.0 0.00 0.00 0.00 55 1019.3
20260510174442 75 269 4.0 9.0 0.00 0.00 0.00 55 1019.3
20260510173943 75 218 4.0 6.0 0.00 0.00 0.00 58 1019.4
20260510173442 74 211 4.0 10.0 0.00 0.00 0.00 59 1019.4
20260510172943 74 178 4.0 10.0 0.00 0.00 0.00 58 1019.4
20260510172440 74 191 3.0 9.0 0.00 0.00 0.00 59 1019.6
20260510171940 74 203 3.0 9.0 0.00 0.00 0.00 58 1019.6
20260510171705 74 212 3.0 6.0 0.00 0.00 0.00 61 1019.6
20260510171202 73 163 3.0 8.0 0.00 0.00 0.00 60 1019.8
20260510170438 73 185 4.0 9.0 0.00 0.00 0.00 62 1019.8
20260510165938 72 153 4.0 9.0 0.00 0.00 0.00 61 1019.8
20260510165436 72 254 4.0 9.0 0.00 0.00 0.00 66 1020.0
20260510164935 72 172 4.0 9.0 0.00 0.00 0.00 64 1020.0
20260510164701 71 232 4.0 10.0 0.00 0.00 0.00 64 1020.0
20260510163935 71 184 4.0 10.0 0.00 0.00 0.00 66 1020.2
20260510163435 71 197 5.0 9.0 0.00 0.00 0.00 69 1020.2
20260510162936 71 205 5.0 9.0 0.00 0.00 0.00 69 1020.2
20260510162433 70 186 4.0 9.0 0.00 0.00 0.00 67 1020.4
20260510161932 70 263 4.0 8.0 0.00 0.00 0.00 71 1020.4
20260510161433 70 278 4.0 8.0 0.00 0.00 0.00 70 1020.4
20260510160936 70 255 4.0 8.0 0.00 0.00 0.00 69 1020.5
20260510160433 70 208 4.0 10.0 0.00 0.00 0.00 71 1020.5
20260510155933 69 197 4.0 10.0 0.00 0.00 0.00 69 1020.5
20260510155431 69 250 3.0 9.0 0.00 0.00 0.00 72 1020.3
20260510155158 69 267 3.0 7.0 0.00 0.00 0.00 76 1020.3
20260510154912 68 177 3.0 7.0 0.00 0.00 0.00 74 1020.3
20260510153930 68 176 3.0 6.0 0.00 0.00 0.00 75 1020.5
20260510153430 67 197 2.0 6.0 0.00 0.00 0.00 78 1020.5
20260510152931 66 253 2.0 7.0 0.00 0.00 0.00 79 1020.5
20260510152649 66 273 2.0 7.0 0.00 0.00 0.00 80 1020.4
20260510151927 66 264 2.0 6.0 0.00 0.00 0.00 80 1020.4
20260510151417 65 264 2.0 6.0 0.00 0.00 0.00 81 1020.4
20260510150918 65 191 2.0 6.0 0.00 0.00 0.00 83 1020.3
20260510150417 64 251 3.0 7.0 0.00 0.00 0.00 82 1020.3
20260510145916 64 218 3.0 7.0 0.00 0.00 0.00 82 1020.3
20260510145415 63 253 2.0 5.0 0.00 0.00 0.00 85 1020.3
20260510144915 63 259 2.0 5.0 0.00 0.00 0.00 84 1020.3
20260510144415 62 241 2.0 5.0 0.00 0.00 0.00 85 1020.3
20260510143915 62 241 2.0 5.0 0.00 0.00 0.00 85 1020.2
20260510143408 62 172 2.0 5.0 0.00 0.00 0.00 87 1020.2
20260510142900 61 269 2.0 5.0 0.00 0.00 0.00 88 1020.2
20260510142355 61 235 2.0 5.0 0.00 0.00 0.00 88 1020.3
20260510141848 60 240 2.0 5.0 0.00 0.00 0.00 89 1020.3
20260510141612 60 241 2.0 5.0 0.00 0.00 0.00 89 1020.3
20260510140845 60 175 1.0 5.0 0.00 0.00 0.00 90 1020.6
20260510140348 59 175 1.0 5.0 0.00 0.00 0.00 91 1020.6
20260510135846 59 191 2.0 4.0 0.00 0.00 0.00 91 1020.6
20260510135336 58 191 2.0 4.0 0.00 0.00 0.00 91 1020.5
20260510134834 58 191 2.0 4.0 0.00 0.00 0.00 92 1020.5
20260510134328 58 156 2.0 4.0 0.00 0.00 0.00 93 1020.5
20260510133828 58 146 2.0 4.0 0.00 0.00 0.00 92 1020.4
20260510133552 57 141 2.0 4.0 0.00 0.00 0.00 93 1020.4
20260510132823 57 140 0.0 4.0 0.00 0.00 0.00 94 1020.4
20260510132322 56 73 0.0 3.0 0.00 0.00 0.00 94 1020.4
20260510131818 56 72 0.0 2.0 0.00 0.00 0.00 95 1020.4
20260510131315 56 72 0.0 2.0 0.00 0.00 0.00 95 1020.4
20260510130819 56 72 0.0 3.0 0.00 0.00 0.00 96 1020.3
20260510130302 55 72 0.0 3.0 0.00 0.00 0.00 96 1020.3
20260510125800 55 10 2.0 3.0 0.00 0.00 0.00 97 1020.3
20260510125248 55 10 2.0 2.0 0.00 0.00 0.00 97 1020.3
20260510124737 54 10 1.0 4.0 0.00 0.00 0.00 97 1020.3
20260510124449 54 10 1.0 4.0 0.00 0.00 0.00 97 1020.3
20260510123725 54 11 0.0 3.0 0.00 0.00 0.00 98 1020.2
20260510123225 54 11 0.0 2.0 0.00 0.00 0.00 99 1020.2
20260510122724 53 11 1.0 2.0 0.00 0.00 0.00 99 1020.2
20260510122209 53 11 1.0 2.0 0.00 0.00 0.00 99 1020.1
20260510121935 53 11 2.0 3.0 0.00 0.00 0.00 99 1020.1
20260510121202 52 11 2.0 4.0 0.00 0.00 0.00 99 1020.1
20260510120700 52 11 2.0 4.0 0.00 0.00 0.00 99 1019.9
20260510120200 51 11 2.0 4.0 0.00 0.00 0.00 99 1019.9
20260510115655 51 10 2.0 5.0 0.00 0.00 0.00 99 1019.9
20260510115150 51 10 2.0 5.0 0.00 0.00 0.00 99 1019.5
20260510114638 51 10 2.0 4.0 0.00 0.00 0.00 99 1019.5
20260510114137 51 10 2.0 5.0 0.00 0.00 0.00 99 1019.2
20260510113634 50 5 2.0 5.0 0.00 0.00 0.00 99 1019.2
20260510113127 50 5 2.0 5.0 0.00 0.00 0.00 99 1019.2
20260510112629 50 16 2.0 5.0 0.00 0.00 0.00 99 1019.0
20260510112127 50 21 2.0 3.0 0.00 0.00 0.00 99 1019.0
20260510111632 50 21 2.0 4.0 0.00 0.00 0.00 99 1019.0
20260510111127 50 21 2.0 5.0 0.00 0.00 0.00 99 1019.0
20260510110629 50 21 2.0 5.0 0.00 0.00 0.00 99 1019.0
20260510110127 50 6 2.0 5.0 0.00 0.00 0.00 98 1019.0
20260510105632 50 2 2.0 4.0 0.00 0.00 0.00 98 1018.9
20260510105127 50 2 2.0 3.0 0.00 0.00 0.00 98 1018.9
20260510104629 50 2 2.0 4.0 0.00 0.00 0.00 98 1018.9
20260510104122 50 2 2.0 4.0 0.00 0.00 0.00 98 1018.5
20260510103851 50 2 1.0 4.0 0.00 0.00 0.00 98 1018.5
20260510103345 50 2 1.0 3.0 0.00 0.00 0.00 98 1018.5
20260510102627 50 2 2.0 2.0 0.00 0.00 0.00 98 1018.1
20260510102120 50 2 2.0 3.0 0.00 0.00 0.00 98 1018.1
20260510101622 50 2 1.0 3.0 0.00 0.00 0.00 98 1018.1
20260510101110 50 2 1.0 3.0 0.00 0.00 0.00 97 1017.8
20260510100612 50 2 0.0 3.0 0.00 0.00 0.00 97 1017.8
20260510100057 51 2 0.0 2.0 0.00 0.00 0.00 97 1017.8
20260510095559 51 2 2.0 2.0 0.00 0.00 0.00 96 1017.8
20260510095048 51 2 2.0 4.0 0.00 0.00 0.00 96 1017.8
20260510094543 52 2 4.0 6.0 0.00 0.00 0.00 98 1017.8
20260510094301 52 2 4.0 6.0 0.00 0.00 0.00 98 1017.7
20260510093740 51 15 4.0 6.0 0.00 0.00 0.00 98 1017.7
20260510093624 52 1 4.0 6.0 0.00 0.00 0.00 98 1017.7
20260510092536 51 17 1.0 6.0 0.00 0.00 0.00 98 1017.5
20260510092029 51 14 1.0 5.0 0.00 0.00 0.00 98 1017.5
20260510091524 51 14 1.0 2.0 0.00 0.00 0.00 97 1017.5
20260510091245 51 14 1.0 2.0 0.00 0.00 0.00 97 1017.4
20260510090522 51 15 0.0 2.0 0.00 0.00 0.00 97 1017.4
20260510090241 51 15 0.0 1.0 0.00 0.00 0.00 96 1017.4
20260510085520 51 14 0.0 0.0 0.00 0.00 0.00 96 1017.4
20260510085251 51 14 0.0 0.0 0.00 0.00 0.00 96 1017.4
20260510084736 51 15 0.0 0.0 0.00 0.00 0.00 96 1017.4
20260510084226 52 14 0.0 1.0 0.00 0.00 0.00 96 1017.2
20260510083941 52 15 0.0 2.0 0.00 0.00 0.00 96 1017.2
20260510082952 52 14 0.0 2.0 0.00 0.00 0.00 96 1017.2
20260510082453 53 14 2.0 3.0 0.00 0.00 0.00 96 1017.0
20260510081950 53 14 2.0 4.0 0.00 0.00 0.00 97 1017.0
20260510081450 53 15 1.0 4.0 0.00 0.00 0.00 97 1017.0
20260510080950 53 14 1.0 4.0 0.00 0.00 0.00 97 1016.8
20260510080445 53 240 0.0 0.0 0.00 0.00 0.00 96 1016.8
20260510075944 53 240 0.0 0.0 0.00 0.00 0.00 97 1016.8
20260510075427 53 240 0.0 0.0 0.00 0.00 0.00 96 1016.7
20260510074917 53 240 0.0 2.0 0.00 0.00 0.00 95 1016.7
20260510074412 53 240 0.0 2.0 0.00 0.00 0.00 95 1016.7
20260510073904 53 240 0.0 0.0 0.00 0.00 0.00 95 1016.6
20260510073356 53 240 0.0 0.0 0.00 0.00 0.00 95 1016.6
20260510073112 54 240 0.0 0.0 0.00 0.00 0.00 95 1016.6
20260510072339 54 240 0.0 0.0 0.00 0.00 0.00 95 1016.5
20260510071829 54 240 0.0 0.0 0.00 0.00 0.00 95 1016.5
20260510071326 54 240 0.0 0.0 0.00 0.00 0.00 94 1016.5
20260510070816 54 240 0.0 0.0 0.00 0.00 0.00 93 1016.5
20260510070307 54 240 0.0 0.0 0.00 0.00 0.00 93 1016.5
20260510065752 54 240 0.0 0.0 0.00 0.00 0.00 93 1016.5
20260510065247 55 240 0.0 0.0 0.00 0.00 0.00 93 1016.6
20260510064735 55 240 0.0 0.0 0.00 0.00 0.00 92 1016.6
20260510064234 55 240 0.0 0.0 0.00 0.00 0.00 91 1016.6
20260510063717 55 240 0.0 0.0 0.00 0.00 0.00 92 1016.5
20260510063214 55 240 0.0 0.0 0.00 0.00 0.00 92 1016.5
20260510062919 56 240 0.0 0.0 0.00 0.00 0.00 92 1016.5
20260510062403 56 240 0.0 2.0 0.00 0.00 0.00 93 1016.5
20260510061640 56 240 0.0 2.0 0.00 0.00 0.00 92 1016.5
20260510061401 56 240 0.0 2.0 0.00 0.00 0.00 92 1016.5
20260510060639 56 240 2.0 3.0 0.00 0.00 0.00 92 1016.5
20260510060127 56 240 2.0 3.0 0.00 0.00 0.00 91 1016.5
20260510055625 56 240 1.0 3.0 0.00 0.00 0.00 91 1016.5
20260510055122 56 240 1.0 3.0 0.00 0.00 0.00 91 1016.5
20260510054622 56 240 0.0 2.0 0.00 0.00 0.00 91 1016.5
20260510054112 56 240 0.0 2.0 0.00 0.00 0.00 91 1016.5
20260510053603 56 240 0.0 0.0 0.00 0.00 0.00 90 1016.5
20260510053100 57 240 0.0 0.0 0.00 0.00 0.00 90 1016.5
20260510052551 57 240 0.0 0.0 0.00 0.00 0.00 89 1016.5
20260510052259 57 240 0.0 0.0 0.00 0.00 0.00 89 1016.5
20260510051541 57 240 0.0 0.0 0.00 0.00 0.00 88 1016.5
20260510051005 57 240 0.0 2.0 0.00 0.00 0.00 89 1016.5
20260510050455 57 240 0.0 3.0 0.00 0.00 0.00 89 1016.5
20260510045945 58 240 0.0 2.0 0.00 0.00 0.00 88 1016.5
20260510045448 58 240 2.0 2.0 0.00 0.00 0.00 87 1016.3
20260510044934 58 240 2.0 3.0 0.00 0.00 0.00 86 1016.3
20260510044432 58 240 0.0 3.0 0.00 0.00 0.00 85 1016.3
20260510044145 59 216 0.0 2.0 0.00 0.00 0.00 84 1016.2
20260510043426 59 216 0.0 0.0 0.00 0.00 0.00 83 1016.2
20260510042917 59 216 0.0 0.0 0.00 0.00 0.00 82 1016.2
20260510042410 60 216 0.0 2.0 0.00 0.00 0.00 82 1016.1
20260510041839 60 216 0.0 2.0 0.00 0.00 0.00 81 1016.1
20260510041317 60 216 0.0 2.0 0.00 0.00 0.00 82 1016.1
20260510040820 60 216 0.0 2.0 0.00 0.00 0.00 82 1016.1
20260510040311 60 216 0.0 2.0 0.00 0.00 0.00 83 1016.1
20260510035812 60 216 0.0 2.0 0.00 0.00 0.00 82 1016.1
20260510035234 60 216 0.0 2.0 0.00 0.00 0.00 82 1016.1
20260510034738 60 216 0.0 2.0 0.00 0.00 0.00 82 1016.1
20260510034237 61 216 0.0 1.0 0.00 0.00 0.00 81 1016.1
20260510033953 61 216 0.0 1.0 0.00 0.00 0.00 80 1015.9
20260510033216 61 216 0.0 0.0 0.00 0.00 0.00 80 1015.9
20260510032706 61 216 0.0 2.0 0.00 0.00 0.00 81 1015.9
20260510032201 61 216 0.0 2.0 0.00 0.00 0.00 81 1016.1
20260510031702 61 216 0.0 1.0 0.00 0.00 0.00 81 1016.1
20260510031155 61 216 0.0 1.0 0.00 0.00 0.00 81 1016.1
20260510030649 61 216 0.0 1.0 0.00 0.00 0.00 80 1015.9
20260510030139 61 216 0.0 0.0 0.00 0.00 0.00 80 1015.9
20260510025612 61 216 0.0 0.0 0.00 0.00 0.00 79 1015.6
20260510025045 62 216 0.0 0.0 0.00 0.00 0.00 78 1015.6
20260510024540 62 216 0.0 0.0 0.00 0.00 0.00 77 1015.6
20260510024008 62 216 0.0 0.0 0.00 0.00 0.00 76 1015.4
20260510023503 63 216 0.0 0.0 0.00 0.00 0.00 75 1015.4
20260510022950 63 216 0.0 0.0 0.00 0.00 0.00 74 1015.4
20260510022442 63 216 0.0 0.0 0.00 0.00 0.00 73 1015.3
20260510022409 64 216 0.0 0.0 0.00 0.00 0.00 73 1015.3
20260510021417 64 216 0.0 2.0 0.00 0.00 0.00 73 1015.3
20260510020907 64 216 0.0 2.0 0.00 0.00 0.00 74 1015.2
20260510020347 64 216 0.0 1.0 0.00 0.00 0.00 74 1015.2
20260510020108 64 216 0.0 0.0 0.00 0.00 0.00 74 1015.2
20260510015347 64 216 0.0 2.0 0.00 0.00 0.00 74 1015.0
20260510014826 64 216 0.0 2.0 0.00 0.00 0.00 74 1015.0
20260510014323 64 216 0.0 0.0 0.00 0.00 0.00 73 1015.0
20260510013818 64 216 0.0 3.0 0.00 0.00 0.00 73 1014.8
20260510013314 65 216 0.0 3.0 0.00 0.00 0.00 72 1014.8
20260510012807 65 216 0.0 2.0 0.00 0.00 0.00 70 1014.8
20260510012306 65 216 0.0 0.0 0.00 0.00 0.00 69 1014.6
20260510012024 65 216 0.0 0.0 0.00 0.00 0.00 69 1014.6
20260510011522 65 216 0.0 1.0 0.00 0.00 0.00 68 1014.6
20260510010800 66 216 0.0 1.0 0.00 0.00 0.00 68 1014.3
20260510010250 66 216 0.0 0.0 0.00 0.00 0.00 68 1014.3
20260510005741 66 216 0.0 1.0 0.00 0.00 0.00 67 1014.3
20260510005222 66 216 0.0 1.0 0.00 0.00 0.00 67 1014.0
20260510004719 67 216 0.0 0.0 0.00 0.00 0.00 66 1014.0
20260510004139 67 216 0.0 1.0 0.00 0.00 0.00 66 1013.8
20260510003849 67 216 0.0 0.0 0.00 0.00 0.00 65 1013.8
20260510003124 68 216 0.0 0.0 0.00 0.00 0.00 64 1013.8
20260510002619 68 216 0.0 0.0 0.00 0.00 0.00 64 1013.5
20260510002112 68 216 0.0 0.0 0.00 0.00 0.00 63 1013.5
20260510001602 69 216 0.0 0.0 0.00 0.00 0.00 63 1013.5
20260510001053 69 216 0.0 2.0 0.00 0.00 0.00 62 1013.4
20260510000551 69 216 1.0 2.0 0.00 0.00 0.00 62 1013.4
20260510000047 70 216 1.0 3.0 0.00 0.00 0.00 61 1013.4
20260509235536 70 216 2.0 3.0 0.00 0.00 0.00 59 1013.5
20260509235022 70 216 2.0 4.0 0.00 0.00 0.00 60 1013.5
20260509234519 71 216 2.0 4.0 0.00 0.00 0.00 59 1013.5
20260509234015 71 216 2.0 5.0 0.00 0.00 0.00 57 1013.4
20260509233511 71 216 2.0 5.0 0.00 0.00 0.00 58 1013.4
20260509233009 71 211 2.0 6.0 0.00 0.00 0.00 57 1013.4
20260509232507 71 189 1.0 6.0 0.00 0.00 0.00 57 1013.7
20260509232006 71 197 1.0 4.0 0.00 0.00 0.00 57 1013.7
20260509231506 71 191 2.0 3.0 0.00 0.00 0.00 57 1013.7